Zurück zum Katalog

ATLAS 5 CENTAUR R/B

AktivHEO
NORAD 27500·ROCKET BODY·🇺🇸 United States

Gestartet Aug 21, 2002 von Cape Canaveral Space Force Station

Loading…

Nächste Überflüge (nächste 24 Stunden)

TLE

AktuellSource: Space-Track

Epoche: Sep 14, 2026, 07:26 UTC

1 27500U 02038B   26257.30999931  .00135867  88092-7  17392-2 0  9990
2 27500  17.8776 276.6304 5115781 251.7274  47.8372  5.57210450243803

Verfolge ATLAS 5 CENTAUR R/B in Echtzeit mit AllMySat

Download on the App Store